Location: Unspecified
(0.0000°N, 0.0000°E)
Time: 03:02:36
(UTC+00:00)

deb Explorer IX - Pass Details

Date: 18 December 2018
Orbit: 538 x 1115 km, 38.8° (Epoch: 14 January)

Event Time Altitude Azimuth Distance (km) Brightness Sun altitude
Rises 00:19:40 0° 335° (NNW) 2,875 - -65.9°
Reaches altitude 10° 00:22:14 10° 350° (N) 2,052 - -65.8°
Maximum altitude 00:26:04 24° 43° (NE) 1,466 - -65.5°
Drops below altitude 10° 00:30:24 10° 96° (E) 2,350 - -65.2°
Sets 00:33:33 0° 109° (ESE) 3,402 - -64.9°
